GW2156 Weather Reports


Display with metric or nautical units.
time (UTC)temp
F
wind
direction
speed
MPH
gust
MPH
rain 1hr
in
rain 24hr
in
rain mn
in
humidity
%
barometer
mb
20260506021126 48 319 3.0 4.0 0.00 0.00 0.00 100 1015.5
20260506020125 48 341 4.0 6.0 0.00 0.00 0.00 100 1015.6
20260506015145 48 353 3.0 4.0 0.00 0.00 0.00 100 1015.6
20260506014125 48 1 4.0 6.0 0.00 0.00 0.00 100 1015.7
20260506013126 48 349 3.0 5.0 0.00 0.00 0.00 100 1015.8
20260506012125 48 323 4.0 5.0 0.00 0.00 0.00 100 1015.9
20260506011125 48 344 4.0 6.0 0.00 0.00 0.00 100 1015.9
20260506010126 48 343 4.0 6.0 0.00 0.00 0.00 100 1015.9
20260506005125 47 1 2.0 3.0 0.00 0.00 0.00 100 1015.8
20260506004125 48 355 3.0 5.0 0.00 0.00 0.00 100 1015.8
20260506003125 48 336 4.0 6.0 0.00 0.00 0.00 100 1015.9
20260506002124 49 297 3.0 4.0 0.00 0.00 0.00 100 1015.9
20260506001125 49 309 2.0 3.0 0.00 0.00 0.00 100 1015.9
20260506000125 49 324 4.0 5.0 0.00 0.00 0.00 100 1015.9
20260505235125 49 324 4.0 5.0 0.00 0.00 0.00 100 1015.9
20260505234125 49 313 4.0 6.0 0.00 0.00 0.00 100 1016.0
20260505233124 49 310 5.0 6.0 0.00 0.00 0.00 100 1015.9
20260505232125 49 315 4.0 5.0 0.00 0.00 0.00 100 1015.9
20260505231124 49 312 5.0 6.0 0.00 0.00 0.00 100 1016.1
20260505230205 49 311 5.0 6.0 0.00 0.00 0.00 100 1016.2
20260505225124 50 313 5.0 6.0 0.00 0.00 0.00 100 1016.3
20260505224144 50 304 4.0 6.0 0.00 0.00 0.00 98 1016.3
20260505223124 50 311 4.0 6.0 0.00 0.00 0.00 97 1016.3
20260505222124 50 313 4.0 6.0 0.00 0.00 0.00 96 1016.4
20260505221144 50 312 5.0 5.0 0.00 0.00 0.00 95 1016.4
20260505220124 51 312 4.0 5.0 0.00 0.00 0.00 93 1016.4
20260505215124 51 334 4.0 5.0 0.00 0.00 0.00 94 1016.4
20260505214124 50 354 4.0 5.0 0.00 0.00 0.00 93 1016.4
20260505213124 50 2 3.0 4.0 0.00 0.00 0.00 92 1016.5
20260505212124 51 354 3.0 4.0 0.00 0.00 0.00 92 1016.4
20260505211124 50 5 3.0 4.0 0.00 0.00 0.00 91 1016.5
20260505210124 50 4 3.0 3.0 0.00 0.00 0.00 91 1016.5
20260505205124 50 353 3.0 4.0 0.00 0.00 0.00 90 1016.5
20260505204124 50 354 3.0 4.0 0.00 0.00 0.00 89 1016.5
20260505203124 50 0 3.0 3.0 0.00 0.00 0.00 90 1016.6
20260505202224 50 9 2.0 3.0 0.00 0.00 0.00 91 1016.5
20260505201124 50 27 2.0 4.0 0.00 0.00 0.00 91 1016.5
20260505200123 50 37 3.0 4.0 0.00 0.00 0.00 91 1016.4
20260505195123 50 35 3.0 4.0 0.00 0.00 0.00 91 1016.4
20260505194123 50 18 2.0 3.0 0.00 0.00 0.00 92 1016.4
20260505193124 50 37 3.0 4.0 0.00 0.00 0.00 92 1016.3
20260505192123 50 59 3.0 5.0 0.00 0.00 0.00 91 1016.2
20260505191123 50 35 3.0 5.0 0.00 0.00 0.00 92 1016.2
20260505190123 50 67 5.0 7.0 0.00 0.00 0.00 92 1016.2
20260505185123 50 69 4.0 6.0 0.00 0.00 0.00 93 1016.2
20260505184123 50 67 4.0 7.0 0.00 0.00 0.00 94 1016.2
20260505183123 51 65 5.0 7.0 0.00 0.00 0.00 95 1016.2
20260505182123 51 82 5.0 8.0 0.00 0.00 0.00 97 1016.2
20260505181143 51 80 6.0 10.0 0.00 0.00 0.00 96 1016.1
20260505180123 51 77 5.0 9.0 0.00 0.00 0.00 95 1016.1
20260505175143 51 74 7.0 10.0 0.00 0.00 0.00 95 1016.2
20260505174123 51 73 8.0 11.0 0.00 0.00 0.00 94 1016.2
20260505173123 51 81 8.0 12.0 0.00 0.00 0.00 93 1016.2
20260505172123 52 82 9.0 15.0 0.00 0.00 0.00 92 1016.3
20260505171143 51 74 10.0 14.0 0.00 0.00 0.00 91 1016.3
20260505170123 52 76 9.0 13.0 0.00 0.00 0.00 93 1016.3
20260505165123 52 71 9.0 12.0 0.00 0.00 0.00 93 1016.4
20260505164122 52 66 10.0 13.0 0.00 0.00 0.00 93 1016.4
20260505163142 52 74 9.0 13.0 0.00 0.00 0.00 93 1016.3
20260505162122 51 71 10.0 13.0 0.00 0.00 0.00 93 1016.4
20260505161144 52 70 7.0 10.0 0.00 0.00 0.00 94 1016.4
20260505160123 52 72 8.0 12.0 0.00 0.00 0.00 94 1016.4
20260505153122 52 71 9.0 12.0 0.00 0.00 0.00 90 1016.3
20260505152123 52 75 9.0 12.0 0.00 0.00 0.00 88 1016.3
20260505151122 52 80 10.0 14.0 0.00 0.00 0.00 89 1016.2
20260505150202 53 94 8.0 13.0 0.00 0.00 0.00 87 1016.3
20260505140122 54 91 5.0 9.0 0.00 0.00 0.00 83 1016.3
20260505130202 54 89 5.0 9.0 0.00 0.00 0.00 81 1016.4
20260505124121 53 89 7.0 10.0 0.00 0.00 0.00 83 1016.3
20260505123122 53 90 7.0 12.0 0.00 0.00 0.00 82 1016.3
20260505122121 54 87 8.0 14.0 0.00 0.00 0.00 80 1016.3
20260505121122 54 94 7.0 13.0 0.00 0.00 0.00 78 1016.4
20260505120142 54 77 8.0 12.0 0.00 0.00 0.00 74 1016.4
20260505115121 56 64 7.0 10.0 0.00 0.00 0.00 65 1016.4
20260505114121 55 33 7.0 11.0 0.00 0.00 0.00 62 1016.3
20260505113121 55 6 6.0 9.0 0.00 0.00 0.00 63 1016.5
20260505112121 54 15 8.0 13.0 0.00 0.00 0.00 67 1016.5
20260505111125 54 351 9.0 11.0 0.00 0.00 0.00 66 1016.5
20260505110125 54 345 7.0 10.0 0.00 0.00 0.00 67 1016.6
20260505102126 54 34 6.0 10.0 0.00 0.00 0.00 65 1016.7
20260505101125 54 359 7.0 10.0 0.00 0.00 0.00 67 1016.7
20260505100125 54 22 9.0 13.0 0.00 0.00 0.00 66 1016.7
20260505095145 53 17 9.0 14.0 0.00 0.00 0.00 67 1016.8
20260505094145 53 14 9.0 14.0 0.00 0.00 0.00 69 1016.8
20260505093125 53 2 10.0 13.0 0.00 0.00 0.00 70 1016.8
20260505092125 53 6 10.0 13.0 0.00 0.00 0.00 69 1016.8
20260505091125 53 9 12.0 15.0 0.00 0.00 0.00 64 1016.7
20260505090124 53 359 11.0 14.0 0.00 0.00 0.00 69 1016.6
20260505085125 53 350 8.0 12.0 0.00 0.00 0.00 72 1016.7
20260505084125 53 2 9.0 14.0 0.00 0.00 0.00 69 1016.7
20260505083124 52 2 9.0 13.0 0.00 0.00 0.00 71 1016.8
20260505082124 52 1 10.0 13.0 0.00 0.00 0.00 71 1016.8
20260505081305 52 346 10.0 15.0 0.00 0.00 0.00 70 1016.8
20260505080124 52 350 9.0 12.0 0.00 0.00 0.00 66 1016.8
20260505075124 52 359 10.0 13.0 0.00 0.00 0.00 67 1016.7
20260505074144 51 347 9.0 11.0 0.00 0.00 0.00 76 1016.7
20260505073124 52 335 10.0 13.0 0.00 0.00 0.00 76 1016.7
20260505072125 52 351 9.0 14.0 0.00 0.00 0.00 74 1016.7
20260505071124 52 355 10.0 16.0 0.00 0.00 0.00 68 1016.7
20260505070125 52 1 7.0 10.0 0.00 0.00 0.00 74 1016.7
20260505065124 52 356 10.0 13.0 0.00 0.00 0.00 72 1016.8
20260505064144 50 346 7.0 11.0 0.00 0.00 0.00 86 1016.8
20260505063125 49 342 9.0 12.0 0.00 0.00 0.00 95 1016.8
20260505062124 48 344 8.0 11.0 0.00 0.00 0.00 99 1016.9
20260505061125 48 338 8.0 11.0 0.00 0.00 0.00 100 1016.8
20260505060124 48 340 8.0 11.0 0.00 0.00 0.00 100 1016.9
20260505055124 47 324 8.0 11.0 0.00 0.00 0.00 100 1016.9
20260505054144 47 301 8.0 10.0 0.00 0.00 0.00 100 1016.8
20260505053124 47 299 7.0 11.0 0.00 0.00 0.00 100 1016.8
20260505052124 47 307 6.0 8.0 0.00 0.00 0.00 100 1016.8
20260505051124 48 300 7.0 10.0 0.00 0.00 0.00 100 1016.7
20260505050144 48 329 8.0 10.0 0.00 0.00 0.00 100 1016.7
20260505041130 47 302 8.0 13.0 0.00 0.00 0.00 100 1016.6
20260505040110 47 310 6.0 7.0 0.00 0.00 0.00 100 1016.6
20260505035110 47 298 8.0 12.0 0.00 0.00 0.00 100 1016.6
20260505034110 47 306 7.0 9.0 0.00 0.00 0.00 100 1016.7
20260505033130 47 296 8.0 14.0 0.00 0.00 0.00 100 1016.7
20260505032110 47 313 7.0 10.0 0.00 0.00 0.00 99 1016.7
20260505031129 47 311 6.0 8.0 0.00 0.00 0.00 98 1016.7
20260505030110 48 314 6.0 10.0 0.00 0.00 0.00 98 1016.7
20260505025109 48 323 8.0 13.0 0.00 0.00 0.00 98 1016.7
20260505024109 48 343 8.0 12.0 0.00 0.00 0.00 100 1016.7
20260505023134 48 326 7.0 10.0 0.00 0.00 0.00 100 1016.7
20260505022113 48 319 7.0 9.0 0.00 0.00 0.00 100 1016.7